TimeCST,TemperatureF,Dew PointF,Humidity,Sea Level PressureIn,VisibilityMPH,Wind Direction,Wind SpeedMPH,Gust SpeedMPH,PrecipitationIn,Events,Conditions,WindDirDegrees,DateUTC
12:53 AM,36.0,26.1,67,30.23,10.0,NE,3.5,-,N/A,,Clear,50,2009-01-01 06:53:00
1:53 AM,35.1,26.1,70,30.22,10.0,NE,3.5,-,N/A,,Clear,50,2009-01-01 07:53:00
2:53 AM,34.0,28.0,79,30.20,10.0,Calm,Calm,-,N/A,,Clear,0,2009-01-01 08:53:00
3:53 AM,35.1,28.0,76,30.20,10.0,NE,3.5,-,N/A,,Clear,50,2009-01-01 09:53:00
4:53 AM,33.1,28.0,82,30.17,10.0,ENE,3.5,-,N/A,,Clear,60,2009-01-01 10:53:00
6:53 AM,30.9,28.0,89,30.18,10.0,ESE,3.5,-,N/A,,Clear,110,2009-01-01 12:53:00
7:53 AM,35.1,30.0,82,30.19,10.0,East,3.5,-,N/A,,Clear,100,2009-01-01 13:53:00
8:53 AM,39.9,30.0,68,30.20,10.0,ESE,8.1,-,N/A,,Clear,120,2009-01-01 14:53:00
9:53 AM,44.1,32.0,63,30.21,10.0,SSE,12.7,-,N/A,,Clear,150,2009-01-01 15:53:00
10:53 AM,48.9,35.1,59,30.18,10.0,SSE,8.1,-,N/A,,Partly Cloudy,150,2009-01-01 16:53:00
11:53 AM,52.0,37.0,57,30.13,10.0,SE,6.9,-,N/A,,Partly Cloudy,140,2009-01-01 17:53:00
12:53 PM,57.9,39.9,51,30.08,10.0,ESE,8.1,-,N/A,,Clear,110,2009-01-01 18:53:00
1:53 PM,61.0,42.1,50,30.04,10.0,Calm,Calm,-,N/A,,Clear,0,2009-01-01 19:53:00
2:53 PM,63.0,45.0,52,30.03,10.0,ESE,8.1,-,N/A,,Clear,110,2009-01-01 20:53:00
3:53 PM,62.1,46.0,56,30.02,10.0,ESE,12.7,-,N/A,,Clear,120,2009-01-01 21:53:00
4:53 PM,59.0,48.0,67,30.00,10.0,SE,9.2,-,N/A,,Overcast,140,2009-01-01 22:53:00
5:53 PM,59.0,48.0,67,30.01,10.0,SSE,5.8,-,N/A,,Overcast,160,2009-01-01 23:53:00
6:06 PM,59.0,48.2,67,29.99,10.0,SSE,4.6,-,N/A,,Overcast,160,2009-01-02 00:06:00
6:53 PM,57.9,50.0,75,29.99,10.0,SSE,5.8,-,N/A,,Overcast,160,2009-01-02 00:53:00
7:41 PM,57.2,50.0,77,29.96,10.0,SE,9.2,-,N/A,,Overcast,130,2009-01-02 01:41:00
7:53 PM,57.9,50.0,75,29.98,10.0,SE,6.9,-,N/A,,Overcast,140,2009-01-02 01:53:00
8:53 PM,59.0,51.1,75,29.98,10.0,South,6.9,-,N/A,,Overcast,170,2009-01-02 02:53:00
9:31 PM,59.0,51.8,77,29.96,10.0,SSE,6.9,-,N/A,,Overcast,150,2009-01-02 03:31:00
9:49 PM,59.0,51.8,77,29.96,10.0,SSE,9.2,-,N/A,,Overcast,150,2009-01-02 03:49:00
9:53 PM,59.0,52.0,78,29.97,10.0,SSE,9.2,-,N/A,,Overcast,150,2009-01-02 03:53:00
10:10 PM,59.0,51.8,77,29.95,10.0,SE,9.2,-,N/A,,Overcast,140,2009-01-02 04:10:00
10:34 PM,59.0,51.8,77,29.96,10.0,SE,6.9,-,N/A,,Overcast,140,2009-01-02 04:34:00
10:53 PM,57.9,51.1,78,29.96,10.0,ESE,6.9,-,N/A,,Overcast,120,2009-01-02 04:53:00
11:13 PM,57.2,51.8,82,29.95,10.0,SE,6.9,-,N/A,,Overcast,130,2009-01-02 05:13:00
11:53 PM,57.9,51.1,78,29.96,10.0,SE,9.2,-,N/A,,Overcast,130,2009-01-02 05:53:00